Track COSMOS 402 now! 10-day predictions COSMOS 402 is classified as:
1 5105U 71025A 21028.53747315 -.00000093 00000-0 -70375-5 0 9995 2 5105 64.9794 207.3413 0047631 204.8237 222.1353 13.73059199498139